Date String (YYYY-MM-DD hh:mm:ss) UTC,Instrument flags,Ambient pressure (hPa),Sample flow (lpm),Bypass flow (lpm),Sample temperature (°C),Ambient temperature (°C),ASC tube jacket temperature (°C),LED temperature (°C),Box temperature (°C),Sample RH (%),Span deviation,Mass concentration (μg/m³),Mass concentration (μg/m³),Mass concentration (μg/m³)
DateTimeUTC,F1_M11,P_M11,Q1_M11,Q2_M11,T1_M11,T2_M11,T3_M11,T4_M11,T5_M11,U1_M11,ZSPAN_M11,X0_M11,X2_M11,X1_M11
2022-02-04 22:00:00,,0832.4,4.99,0.00,22.1,21.7,00.0,30.9,23.8,08.6,0000.0,0006.00,0002.83,0002.32
2022-02-04 22:01:00,,0832.4,4.99,0.00,22.1,21.7,00.0,30.9,23.9,08.6,0000.0,0006.57,0002.85,0002.31
2022-02-04 22:02:00,,0832.4,5.00,0.00,22.1,21.8,00.0,30.9,23.9,08.5,0000.0,0006.99,0002.85,0002.34
2022-02-04 22:03:00,,0832.3,5.01,0.00,22.1,21.8,00.0,31.0,23.9,08.6,0000.0,0007.36,0002.88,0002.37
2022-02-04 22:04:00,,0832.3,4.99,0.00,22.2,21.8,00.0,31.0,23.9,08.2,0000.0,0007.49,0002.90,0002.38
2022-02-04 22:05:00,,0832.3,5.00,0.00,22.2,21.8,00.0,31.0,24.0,08.4,0000.0,0007.40,0002.89,0002.37
2022-02-04 22:06:00,,0832.3,5.02,0.00,22.2,21.8,00.0,31.0,24.0,08.1,0000.0,0007.39,0002.91,0002.38
2022-02-04 22:07:00,,0832.4,4.99,0.00,22.2,21.8,00.0,31.0,23.9,07.8,0000.0,0007.84,0002.91,0002.38
2022-02-04 22:08:00,,0832.4,4.99,0.00,22.2,21.8,00.0,31.1,24.0,07.8,0000.0,0008.12,0002.92,0002.36
2022-02-04 22:09:00,,0832.4,5.01,0.00,22.2,21.8,00.0,31.1,24.0,07.9,0000.0,0007.88,0002.92,0002.34
2022-02-04 22:10:00,,0832.4,5.01,0.00,22.2,21.8,00.0,31.1,24.0,08.1,0000.0,0007.89,0002.91,0002.33
2022-02-04 22:11:00,,0832.4,4.99,0.00,22.2,21.8,00.0,31.1,24.0,08.4,0000.0,0007.87,0002.91,0002.31
2022-02-04 22:12:00,,0832.4,5.00,0.00,22.2,21.9,00.0,31.1,24.0,07.9,0000.0,0007.65,0002.91,0002.30
2022-02-04 22:13:00,,0832.3,5.01,0.00,22.3,21.9,00.0,31.1,24.1,08.0,0000.0,0007.40,0002.91,0002.28
2022-02-04 22:14:00,,0832.3,4.99,0.00,22.3,21.9,00.0,31.1,24.1,07.9,0000.0,0007.18,0002.96,0002.25
2022-02-04 22:15:00,,0832.3,5.00,0.00,22.3,21.9,00.0,31.2,24.1,08.3,0000.0,0007.04,0002.94,0002.22
2022-02-04 22:16:00,,0832.3,5.01,0.00,22.3,22.0,00.0,31.2,24.2,08.1,0000.0,0007.00,0002.91,0002.18
2022-02-04 22:17:00,,0832.2,4.99,0.00,22.4,22.0,00.0,31.2,24.2,07.9,0000.0,0007.00,0002.89,0002.16
2022-02-04 22:18:00,,0832.2,5.00,0.00,22.4,22.0,00.0,31.2,24.2,08.0,0000.0,0007.14,0002.89,0002.14
2022-02-04 22:19:00,,0832.1,5.01,0.00,22.4,22.0,00.0,31.2,24.1,08.0,0000.0,0006.66,0002.89,0002.12
2022-02-04 22:20:00,,0832.1,5.00,0.00,22.4,22.0,00.0,31.2,24.1,08.2,0000.0,0006.04,0002.86,0002.12
2022-02-04 22:21:00,,0832.1,5.00,0.00,22.4,22.0,00.0,31.3,24.1,08.0,0000.0,0006.02,0002.83,0002.11
2022-02-04 22:22:00,,0832.1,5.00,0.00,22.4,22.0,00.0,31.3,24.2,07.9,0000.0,0006.09,0002.86,0002.11
2022-02-04 22:23:00,,0832.1,5.01,0.00,22.4,22.0,00.0,31.3,24.2,08.0,0000.0,0005.96,0002.83,0002.10
2022-02-04 22:24:00,,0832.1,4.99,0.00,22.4,22.0,00.0,31.3,24.2,08.3,0000.0,0006.33,0002.78,0002.09
2022-02-04 22:25:00,,0832.2,5.00,0.00,22.4,22.0,00.0,31.3,24.2,08.2,0000.0,0007.23,0002.71,0002.09
2022-02-04 22:26:00,,0832.1,5.01,0.00,22.5,22.0,00.0,31.3,24.2,07.8,0000.0,0007.17,0002.72,0002.11
2022-02-04 22:27:00,,0832.1,5.00,0.00,22.5,22.0,00.0,31.3,24.2,07.8,0000.0,0007.96,0002.78,0002.13
2022-02-04 22:28:00,,0832.1,5.00,0.00,22.5,22.0,00.0,31.3,24.2,07.9,0000.0,0008.25,0002.83,0002.16
2022-02-04 22:29:00,,0832.1,5.00,0.00,22.5,22.0,00.0,31.4,24.2,07.8,0000.0,0008.13,0002.85,0002.20
2022-02-04 22:30:00,,0832.1,5.00,0.00,22.5,22.0,00.0,31.4,24.2,07.8,0000.0,0007.94,0002.84,0002.22
2022-02-04 22:31:00,,0832.1,5.00,0.00,22.5,22.0,00.0,31.4,24.2,07.8,0000.0,0007.99,0002.86,0002.25
2022-02-04 22:32:00,,0832.1,5.00,0.00,22.5,22.0,00.0,31.4,24.2,07.9,0000.0,0008.07,0002.89,0002.28
2022-02-04 22:33:00,,0832.1,4.99,0.00,22.4,22.0,00.0,31.4,24.2,07.8,0000.0,0008.11,0002.87,0002.29
2022-02-04 22:34:00,,0832.1,5.00,0.00,22.4,22.0,00.0,31.4,24.2,08.0,0000.0,0008.10,0002.85,0002.30
2022-02-04 22:35:00,,0832.1,5.02,0.00,22.5,22.0,00.0,31.4,24.2,08.3,0000.0,0008.04,0002.88,0002.31
2022-02-04 22:36:00,,0832.1,4.99,0.00,22.5,22.0,00.0,31.4,24.2,08.0,0000.0,0007.83,0002.92,0002.33
2022-02-04 22:37:00,,0832.1,4.99,0.00,22.5,22.0,00.0,31.4,24.2,08.1,0000.0,0007.88,0002.91,0002.34
2022-02-04 22:38:00,,0832.2,5.01,0.00,22.5,22.0,00.0,31.4,24.2,08.1,0000.0,0007.44,0002.84,0002.32
2022-02-04 22:39:00,,0832.1,5.00,0.00,22.5,22.0,00.0,31.4,24.2,08.1,0000.0,0007.55,0002.82,0002.32
2022-02-04 22:40:00,,0832.1,5.02,0.00,22.5,22.0,00.0,31.4,24.3,08.0,0000.0,0007.60,0002.82,0002.29
2022-02-04 22:41:00,,0832.1,5.00,0.00,22.5,22.0,00.0,31.4,24.2,08.0,0000.0,0007.76,0002.83,0002.29
2022-02-04 22:42:00,,0832.1,4.99,0.00,22.5,22.0,00.0,31.4,24.2,07.9,0000.0,0007.97,0002.85,0002.28
2022-02-04 22:43:00,,0832.1,5.00,0.00,22.5,22.0,00.0,31.4,24.2,08.2,0000.0,0007.96,0002.87,0002.27
2022-02-04 22:44:00,,0832.1,5.01,0.00,22.5,22.0,00.0,31.4,24.3,08.2,0000.0,0007.90,0002.85,0002.26
2022-02-04 22:45:00,,0832.1,4.99,0.00,22.5,22.1,00.0,31.5,24.3,08.3,0000.0,0008.01,0002.87,0002.26
2022-02-04 22:46:00,,0832.1,5.00,0.00,22.5,22.0,00.0,31.5,24.3,08.1,0000.0,0008.00,0002.87,0002.27
2022-02-04 22:47:00,,0832.1,5.00,0.00,22.5,22.1,00.0,31.5,24.3,08.1,0000.0,0007.97,0002.91,0002.27
2022-02-04 22:48:00,,0832.1,4.99,0.00,22.6,22.1,00.0,31.5,24.3,08.0,0000.0,0007.83,0002.94,0002.28
2022-02-04 22:49:00,,0832.1,5.00,0.00,22.6,22.1,00.0,31.5,24.4,08.0,0000.0,0007.94,0002.98,0002.30
2022-02-04 22:50:00,,0832.1,4.99,0.00,22.6,22.1,00.0,31.5,24.4,08.0,0000.0,0007.90,0003.02,0002.31
2022-02-04 22:51:00,,0832.1,5.01,0.00,22.6,22.1,00.0,31.5,24.4,08.1,0000.0,0007.71,0003.04,0002.32
2022-02-04 22:52:00,,0832.2,5.00,0.00,22.6,22.2,00.0,31.5,24.4,08.1,0000.0,0007.61,0003.10,0002.34
2022-02-04 22:53:00,,0832.1,4.99,0.00,22.7,22.2,00.0,31.5,24.4,07.9,0000.0,0007.38,0003.09,0002.35
2022-02-04 22:54:00,,0832.1,4.99,0.00,22.7,22.2,00.0,31.5,24.5,08.0,0000.0,0007.37,0003.11,0002.37
2022-02-04 22:55:00,,0832.1,5.01,0.00,22.7,22.3,00.0,31.6,24.5,07.8,0000.0,0007.43,0003.15,0002.38
2022-02-04 22:56:00,,0832.1,4.99,0.00,22.7,22.3,00.0,31.6,24.5,08.0,0000.0,0008.27,0003.16,0002.39
2022-02-04 22:57:00,,0832.1,5.01,0.00,22.7,22.3,00.0,31.6,24.5,08.0,0000.0,0008.45,0003.17,0002.40
2022-02-04 22:58:00,,0832.1,4.99,0.00,22.8,22.3,00.0,31.6,24.6,07.9,0000.0,0008.11,0003.16,0002.41
2022-02-04 22:59:00,,0832.1,5.01,0.00,22.8,22.3,00.0,31.6,24.6,07.9,0000.0,0008.01,0003.17,0002.44
